STARLINK-35797

Last updated on Sun Dec 07 2025 00:02:05 GMT+0000 (Coordinated Universal Time)

1 66364U 25254S 25340.58335648 -.00088485 00000+0 -15994-2 0 9993 2 66364 53.1599 305.9739 0000956 71.2062 9.7624 15.49337438 5935
UTC large
Height (km)
Speed (km/s)
/
Latitude / Longitude
Inclination (degrees)
Orbital Period (minutes)
Azimuth
Elevation
Range (km)
Doppler Factor

Next 0 passes for location: London (51.5072 / 0.1276)

Sorry there are no passes over London.